STARLINK-32203, 60331

Orbit data source: Space-Track

STARLINK-32203, 60331 is a payload satellite owned by SpaceX/Seattle (US) in LEO that was launched on Fri, 02 Aug 2024 UTC via an FALCON 9 launch vehicle from the Air Force Eastern Test Range (AFETR). Payload-class satellites include a variety of spacecraft equipped with specific instruments for various scientific and technological missions. These include communications satellites like Starlink; space stations such as the ISS; scientific satellites like the Hubble; Earth observation satellites from companies like Planet Labs, Umbra, and HawkEye 360; GPS; miniature CubeSats for education and research; and military/defense satellites.

Loading next visibility...
Identifier
60331, 2024-136C
Orbit
LEO
Last TLE update
10 hours ago
Origin
Manufacturer
SpaceX/Seattle
Mission
Operational Commercial Communications
Bus & Motor
STARLINK V2M, Unknown motor
Mass
730 kg wet, ~700 kg dry
Launch date (UTC)
2024-08-02 (9 months ago)
Launch vehicle
FALCON 9
Launch site
Air Force Eastern Test Range (AFETR)
Object type
Payload
Rocket body
Debris
Shape & HBR
Box + 2 Pan, 29 m
Radar Cross Section
33.884 m², Large (>1 m²)

Expand to show TLE details & history

TLE from 10 hours ago
0 STARLINK-32203
1 60331U 24136C   25128.85198754  .00001135  00000-0  50445-4 0  9996
2 60331  53.1619  41.5911 0000983  97.2064 262.9049 15.30199540 43139
Epoch: 2025-05-08T20:26Z
Definitive object data (Epoch: 2025-05-08T20:26:51.723Z)
Latitude
0.00002°
Longitude
-132.04094°
Altitude
476.2 km
Speed
7.629 km/s
True Right ascension
02h 46m 21s
True Declination
0° 00' 00"
Sunlit
Object was in daylight at TLE epoch
Visualization TLE readout
Latitude
53.24572°
Longitude
-47.97876°
Altitude
481.111 km
Speed
7.632 km/s
Apparent Right ascension
05h 02m 48s
Apparent Declination
12° 21' 15"
Sunlit
Object is in daylight
Visualization observer readout
Local Sidereal Time
14:22:49
Azimuth
315.743° NNW
Elevation
-25.895°
Doppler factor
1
Orbital elements
Apogee altitude
476.146 km
Perigee altitude
474.799 km
Semi-major axis
6,853.61 km
Eccentricity
0.0000983
Inclination
53.1619°
RAAN
41.5911°
Arg. of periapsis
97.2064°
True anomaly
262.89372°
Mean anomaly
262.9049°
Eccentric anomaly
262.89931°
Mean motion
3.82529 °/min
BSTAR
0.000050445
Orbital period
94.11 mins
Loading maneuver chart data...
Loading SW <> Apogee altitude chart data...
Loading historical data...
Loading historical data...
Loading historical data...
Loading historical data...
Loading historical data...
Loading historical data...
Loading historical data...

STARLINK-32203 Visibility forecast

Observer location: undefined°, undefined°

Span
Click to sort rows by Start time (UTC) header in descending order
Start Az.
Max El. time (UTC)
Max El. Az.
Max El.
End time (UTC)
End Az.
6 mins2025-05-09 20:07:01.787Z196.964° SSW2025-05-09 20:10:01.787Z132.788° SE29.751°2025-05-09 20:13:01.787Z68.68° E
5 mins2025-05-09 21:46:01.787Z280.397° WNW2025-05-09 21:48:01.787Z332.419° NNW26.913°2025-05-09 21:51:01.787Z31.915° NE
5 mins2025-05-10 02:43:01.787Z340.327° N2025-05-10 02:45:01.787Z37.328° NE28.977°2025-05-10 02:48:01.787Z96.859° ESE
4 mins2025-05-10 04:21:01.787Z273.309° WNW2025-05-10 04:23:01.787Z218.222° SW26.339°2025-05-10 04:25:01.787Z174.623° S
|